CW7104 Weather Reports


time (UTC)temp
F
wind
direction
speed
knots
gust
knots
rain 1hr
in
rain 24hr
in
rain mn
in
humidity
%
barometer
mb
20260502181905 57 8 6.1 10.4 0.00 0.00 0.00 61 1019.4
20260502181404 56 50 3.5 7.0 0.00 0.00 0.00 67 1019.3
20260502180904 55 15 3.5 8.7 0.00 0.00 0.00 68 1019.3
20260502180404 53 60 3.5 7.8 0.00 0.00 0.00 69 1019.4
20260502170404 53 26 3.5 7.8 0.00 0.00 0.00 71 1019.7
20260502163904 52 13 0.0 1.7 0.00 0.00 0.00 71 1019.7
20260502162904 53 38 0.9 4.3 0.00 0.00 0.00 68 1019.8
20260502162404 53 55 1.7 7.8 0.00 0.00 0.00 67 1019.7
20260502161904 53 79 0.0 4.3 0.00 0.00 0.00 67 1019.6
20260502160905 53 36 5.2 7.8 0.00 0.00 0.00 66 1019.5
20260502160404 53 13 5.2 8.7 0.00 0.00 0.00 66 1019.5
20260502151404 52 65 0.0 0.0 0.00 0.00 0.00 70 1019.4
20260502150904 52 62 0.0 0.0 0.00 0.00 0.00 70 1019.3
20260502150404 52 55 0.0 0.0 0.00 0.00 0.00 71 1019.3
20260502130404 48 0 0.0 0.0 0.00 0.00 0.00 75 1018.8
20260502121904 47 0 0.0 0.0 0.00 0.00 0.00 77 1018.7
20260502120904 47 0 0.0 0.0 0.00 0.00 0.00 78 1018.5
20260502120404 47 0 0.0 0.0 0.00 0.00 0.00 78 1018.5
20260502115905 47 0 0.0 0.0 0.00 0.00 0.00 78 1018.5
20260502115404 47 0 0.0 0.0 0.00 0.00 0.00 78 1018.4
20260502114904 47 0 0.0 0.0 0.00 0.00 0.00 77 1018.4
20260502114404 46 11 0.0 0.0 0.00 0.00 0.00 77 1018.3
20260502113904 46 0 0.0 0.0 0.00 0.00 0.00 77 1018.1
20260502112904 46 0 0.0 0.0 0.00 0.00 0.00 77 1017.9
20260502111903 46 0 0.0 0.0 0.00 0.00 0.00 77 1017.8
20260502111404 46 0 0.0 0.0 0.00 0.00 0.00 77 1017.7
20260502110903 46 0 0.0 0.0 0.00 0.00 0.00 78 1017.5
20260502110404 46 0 0.0 0.0 0.00 0.00 0.00 78 1017.7
20260502105903 46 0 0.0 0.0 0.00 0.00 0.00 78 1017.7
20260502104904 46 0 0.0 0.0 0.00 0.00 0.00 78 1017.7
20260502104404 46 0 0.0 0.0 0.00 0.00 0.00 78 1017.7
20260502103903 46 0 0.0 0.0 0.00 0.00 0.00 78 1017.6
20260502103404 46 0 0.0 0.0 0.00 0.00 0.00 79 1017.5
20260502102903 46 0 0.0 0.0 0.00 0.00 0.00 79 1017.6
20260502102404 46 0 0.0 0.0 0.00 0.00 0.00 79 1017.6
20260502101903 45 0 0.0 0.0 0.00 0.00 0.00 79 1017.5
20260502101404 45 0 0.0 0.0 0.00 0.00 0.00 79 1017.5
20260502091404 45 0 0.0 0.0 0.00 0.00 0.00 78 1017.3
20260502090903 45 0 0.0 0.0 0.00 0.00 0.00 78 1017.3
20260502090406 45 0 0.0 0.0 0.00 0.00 0.00 79 1017.3
20260502071405 43 0 0.0 0.0 0.00 0.00 0.00 77 1017.5
20260502070905 43 0 0.0 0.0 0.00 0.00 0.00 77 1017.5
20260502070405 43 0 0.0 0.0 0.00 0.00 0.00 77 1017.6
20260502065905 43 0 0.0 0.0 0.00 0.00 0.00 77 1017.6
20260502065405 42 0 0.0 0.0 0.00 0.00 0.00 77 1017.6
20260502064905 42 0 0.0 0.0 0.00 0.00 0.00 76 1017.6
20260502064405 43 0 0.0 0.0 0.00 0.00 0.00 76 1017.6
20260502063905 43 0 0.0 0.0 0.00 0.00 0.00 76 1017.7
20260502062905 43 0 0.0 0.0 0.00 0.00 0.00 76 1017.7
20260502062405 43 0 0.0 0.0 0.00 0.00 0.00 76 1017.7
20260502061905 43 0 0.0 0.0 0.00 0.00 0.00 76 1017.8
20260502061405 43 0 0.0 0.0 0.00 0.00 0.00 76 1017.8
20260502060905 43 0 0.0 0.0 0.00 0.00 0.00 76 1017.8
20260502060405 43 0 0.0 0.0 0.00 0.00 0.00 76 1017.9
20260502055905 43 0 0.0 0.0 0.00 0.00 0.00 75 1017.8
20260502055405 43 0 0.0 0.0 0.00 0.00 0.00 75 1017.7
20260502054405 43 0 0.0 0.0 0.00 0.00 0.00 76 1017.6
20260502053905 43 0 0.0 0.0 0.00 0.00 0.00 75 1017.6
20260502053406 43 0 0.0 0.0 0.00 0.00 0.00 75 1017.7
20260502052904 43 0 0.0 0.0 0.00 0.00 0.00 75 1017.7
20260502051905 44 0 0.0 0.0 0.00 0.00 0.00 75 1017.9
20260502051405 44 0 0.0 0.0 0.00 0.00 0.00 74 1017.9
20260502050905 44 0 0.0 0.0 0.00 0.00 0.00 74 1017.9
20260502050405 44 0 0.0 0.0 0.00 0.00 0.00 74 1017.9
20260502045905 44 0 0.0 0.0 0.00 0.00 0.00 74 1018.0
20260502045405 44 0 0.0 0.0 0.00 0.00 0.00 74 1018.0
20260502044905 44 0 0.0 0.0 0.00 0.00 0.00 73 1017.9
20260502044405 45 0 0.0 0.0 0.00 0.00 0.00 73 1017.9
20260502043905 45 0 0.0 0.0 0.00 0.00 0.00 73 1018.0
20260502043405 45 0 0.0 0.0 0.00 0.00 0.00 73 1018.0
20260502042905 45 0 0.0 0.0 0.00 0.00 0.00 73 1018.1
20260502042405 45 0 0.0 0.0 0.00 0.00 0.00 72 1018.1
20260502041905 45 0 0.0 0.0 0.00 0.00 0.00 72 1018.1
20260502041405 45 0 0.0 0.0 0.00 0.00 0.00 72 1018.1
20260502040405 45 0 0.0 0.0 0.00 0.00 0.00 71 1018.2
20260502035905 45 0 0.0 0.0 0.00 0.00 0.00 71 1018.0
20260502035404 46 0 0.0 0.0 0.00 0.00 0.00 71 1018.1
20260502034905 46 0 0.0 0.0 0.00 0.00 0.00 70 1018.2
20260502034404 46 0 0.0 0.0 0.00 0.00 0.00 70 1018.3
20260502033905 46 0 0.0 0.0 0.00 0.00 0.00 70 1018.4
20260502033404 47 0 0.0 0.0 0.00 0.00 0.00 69 1018.5
20260502032405 47 0 0.0 0.0 0.00 0.00 0.00 68 1018.6
20260502031905 47 0 0.0 0.0 0.00 0.00 0.00 67 1018.6
20260502031404 47 0 0.0 0.0 0.00 0.00 0.00 66 1018.7
20260502030905 47 0 0.0 0.0 0.00 0.00 0.00 65 1018.7
20260502030404 47 0 0.0 0.0 0.00 0.00 0.00 65 1018.7
20260502025905 47 0 0.0 0.0 0.00 0.00 0.00 65 1018.7
20260502024905 47 0 0.0 0.0 0.00 0.00 0.00 64 1018.7
20260502024405 48 0 0.0 0.0 0.00 0.00 0.00 64 1018.6
20260502023905 48 0 0.0 0.0 0.00 0.00 0.00 64 1018.7
20260502023404 48 0 0.0 0.0 0.00 0.00 0.00 64 1018.6
20260502022905 48 0 0.0 0.0 0.00 0.00 0.00 63 1018.5
20260502022404 48 0 0.0 0.0 0.00 0.00 0.00 63 1018.4
20260502021905 49 0 0.0 0.0 0.00 0.00 0.00 63 1018.4
20260502021405 49 0 0.0 0.0 0.00 0.00 0.00 63 1018.4
20260502020905 49 0 0.0 0.0 0.00 0.00 0.00 62 1018.3
20260502020404 49 0 0.0 0.0 0.00 0.00 0.00 61 1018.2
20260502015905 49 0 0.0 0.0 0.00 0.00 0.00 61 1018.2
20260502015405 50 0 0.0 0.0 0.00 0.00 0.00 61 1018.2
20260502014904 50 0 0.0 0.0 0.00 0.00 0.00 60 1018.2
20260502014405 50 0 0.0 0.0 0.00 0.00 0.00 58 1018.1
20260502013905 51 0 0.0 0.0 0.00 0.00 0.00 58 1017.9
20260502013404 51 0 0.0 0.0 0.00 0.00 0.00 58 1017.9
20260502012905 52 0 0.0 0.0 0.00 0.00 0.00 58 1017.7
20260502011404 53 0 0.0 0.0 0.00 0.00 0.00 55 1017.4
20260502010905 53 0 0.0 0.0 0.00 0.00 0.00 55 1017.2
20260502010404 54 0 0.0 0.0 0.00 0.00 0.00 54 1017.1
20260502005404 55 0 0.0 0.0 0.00 0.00 0.00 52 1016.9
20260502004905 55 0 0.0 0.0 0.00 0.00 0.00 51 1016.9
20260502004404 55 0 0.0 0.0 0.00 0.00 0.00 51 1017.0
20260502003905 56 0 0.0 0.0 0.00 0.00 0.00 50 1017.0
20260502003405 56 0 0.0 0.0 0.00 0.00 0.00 50 1017.0
20260502002905 57 0 0.0 0.0 0.00 0.00 0.00 48 1017.1
20260502002404 57 0 0.0 0.0 0.00 0.00 0.00 48 1017.0
20260502001905 58 0 0.0 0.0 0.00 0.00 0.00 46 1016.9
20260502001405 58 0 0.0 0.0 0.00 0.00 0.00 45 1016.8
20260501235904 60 10 0.0 0.0 0.00 0.00 0.00 43 1016.7
20260501235405 60 357 0.0 0.9 0.00 0.00 0.00 44 1016.7
20260501234904 60 358 0.0 0.0 0.00 0.00 0.00 45 1016.7
20260501234405 60 6 0.0 0.0 0.00 0.00 0.00 45 1016.6
20260501233905 59 343 0.0 0.0 0.00 0.00 0.00 45 1016.5
20260501233404 59 268 0.0 0.0 0.00 0.00 0.00 42 1016.5
20260501232905 60 319 0.0 0.0 0.00 0.00 0.00 43 1016.3
20260501232404 60 0 0.0 0.9 0.00 0.00 0.00 43 1016.0
20260501231405 61 27 0.0 0.9 0.00 0.00 0.00 42 1015.7
20260501230904 62 15 0.0 0.9 0.00 0.00 0.00 41 1015.6
20260501230406 62 10 0.0 0.0 0.00 0.00 0.00 41 1015.7
20260501225904 62 18 0.0 0.9 0.00 0.00 0.00 43 1015.8
20260501225404 62 9 1.7 7.0 0.00 0.00 0.00 42 1015.8
20260501224905 62 7 0.9 7.8 0.00 0.00 0.00 41 1016.0
20260501224405 62 9 1.7 5.2 0.00 0.00 0.00 42 1016.0
20260501223905 62 3 2.6 6.1 0.00 0.00 0.00 42 1016.1
20260501223405 61 1 2.6 8.7 0.00 0.00 0.00 43 1016.2
20260501222904 61 3 0.0 0.9 0.00 0.00 0.00 44 1016.4
20260501222404 60 20 0.0 0.9 0.00 0.00 0.00 43 1016.3
20260501221404 60 348 0.0 0.9 0.00 0.00 0.00 42 1016.1
20260501220905 60 326 0.0 0.9 0.00 0.00 0.00 41 1016.1
20260501220404 60 331 0.0 0.0 0.00 0.00 0.00 41 1016.2
20260501215904 61 345 0.0 0.9 0.00 0.00 0.00 40 1016.3
20260501214404 62 6 2.6 10.4 0.00 0.00 0.00 43 1016.2
20260501213904 61 332 0.0 0.9 0.00 0.00 0.00 43 1016.3
20260501213404 61 20 0.0 0.9 0.00 0.00 0.00 41 1016.4
20260501212904 60 322 0.0 0.9 0.00 0.00 0.00 41 1016.4
20260501212405 60 337 0.0 0.9 0.00 0.00 0.00 40 1016.4
20260501211904 61 353 0.9 8.7 0.00 0.00 0.00 38 1016.4
20260501211404 61 319 0.0 0.9 0.00 0.00 0.00 40 1016.6
20260501210405 61 300 0.0 0.9 0.00 0.00 0.00 41 1016.7
20260501205905 60 339 0.0 0.0 0.00 0.00 0.00 42 1016.8
20260501205405 61 0 0.0 0.0 0.00 0.00 0.00 42 1016.9
20260501204904 61 1 0.0 2.6 0.00 0.00 0.00 41 1016.9
20260501204405 61 339 7.8 10.4 0.00 0.00 0.00 39 1016.9
20260501203904 61 352 5.2 11.3 0.00 0.00 0.00 38 1017.0
20260501203405 61 341 7.8 17.4 0.00 0.00 0.00 37 1017.0
20260501202905 62 354 2.6 10.4 0.00 0.00 0.00 39 1017.0
20260501201905 62 9 1.7 7.0 0.00 0.00 0.00 41 1017.1
20260501200904 63 5 2.6 7.0 0.00 0.00 0.00 43 1017.2
20260501200404 62 358 5.2 13.0 0.00 0.00 0.00 42 1017.3
20260501195905 63 353 4.3 11.3 0.00 0.00 0.00 38 1017.4
20260501195405 63 332 2.6 7.8 0.00 0.00 0.00 40 1017.3
20260501194904 63 7 0.9 8.7 0.00 0.00 0.00 42 1017.4
20260501194404 62 358 4.3 8.7 0.00 0.00 0.00 41 1017.4
20260501193905 62 347 0.9 10.4 0.00 0.00 0.00 41 1017.5
20260501193404 62 323 1.7 7.8 0.00 0.00 0.00 41 1017.5
20260501192404 62 349 2.6 8.7 0.00 0.00 0.00 41 1017.6
20260501191905 61 1 1.7 7.8 0.00 0.00 0.00 44 1017.5
20260501191404 61 346 0.9 7.0 0.00 0.00 0.00 43 1017.6
20260501190904 61 353 0.0 8.7 0.00 0.00 0.00 44 1017.6
20260501190404 61 354 5.2 8.7 0.00 0.00 0.00 42 1017.6
20260501185904 61 346 0.9 8.7 0.00 0.00 0.00 45 1017.5
20260501185405 61 358 3.5 10.4 0.00 0.00 0.00 46 1017.5
20260501184905 61 341 2.6 7.0 0.00 0.00 0.00 46 1017.5
20260501184405 61 2 0.9 8.7 0.00 0.00 0.00 44 1017.4
20260501183904 61 5 2.6 10.4 0.00 0.00 0.00 47 1017.3
20260501183404 60 355 2.6 11.3 0.00 0.00 0.00 44 1017.5
20260501182904 60 348 0.0 6.1 0.00 0.00 0.00 47 1017.4
20260501182404 60 321 1.7 6.1 0.00 0.00 0.00 45 1017.5